TimeCST,TemperatureF,Dew PointF,Humidity,Sea Level PressureIn,VisibilityMPH,Wind Direction,Wind SpeedMPH,Gust SpeedMPH,PrecipitationIn,Events,Conditions,WindDirDegrees,DateUTC
12:55 AM,47.3,44.2,89,30.18,10.0,Calm,Calm,-,N/A,,Clear,0,2012-11-21 06:55:00
1:55 AM,49.5,46.4,89,30.17,10.0,ENE,4.6,-,N/A,,Clear,60,2012-11-21 07:55:00
2:55 AM,51.4,47.1,85,30.17,10.0,Calm,Calm,-,N/A,,Clear,0,2012-11-21 08:55:00
3:55 AM,46.8,45.0,93,30.18,10.0,Calm,Calm,-,N/A,,Clear,0,2012-11-21 09:55:00
4:55 AM,42.8,40.1,90,30.18,10.0,Calm,Calm,-,N/A,,Clear,0,2012-11-21 10:55:00
5:55 AM,42.8,40.5,91,30.20,10.0,Calm,Calm,-,N/A,,Clear,0,2012-11-21 11:55:00
6:55 AM,40.8,39.7,96,30.21,10.0,SE,4.6,-,N/A,,Clear,130,2012-11-21 12:55:00
7:55 AM,43.9,43.5,99,30.23,4.0,Calm,Calm,-,N/A,,Clear,0,2012-11-21 13:55:00
8:55 AM,50.7,47.7,89,30.23,10.0,SE,4.6,-,N/A,,Clear,130,2012-11-21 14:55:00
9:55 AM,57.2,48.9,74,30.23,10.0,SE,8.1,-,N/A,,Clear,130,2012-11-21 15:55:00
10:55 AM,65.3,47.8,53,30.22,10.0,SSE,9.2,-,N/A,,Clear,160,2012-11-21 16:55:00
11:55 AM,70.2,52.2,53,30.18,10.0,South,13.8,-,N/A,,Clear,180,2012-11-21 17:55:00
12:55 PM,73.8,51.1,45,30.14,10.0,South,12.7,-,N/A,,Clear,180,2012-11-21 18:55:00
1:55 PM,76.3,41.2,28,30.10,10.0,South,16.1,24.2,N/A,,Clear,170,2012-11-21 19:55:00
2:55 PM,77.4,40.1,26,30.07,10.0,South,20.7,-,N/A,,Clear,180,2012-11-21 20:55:00
3:55 PM,75.2,41.9,30,30.06,10.0,South,15.0,-,N/A,,Clear,180,2012-11-21 21:55:00
4:55 PM,73.2,45.9,38,30.06,10.0,South,15.0,-,N/A,,Clear,180,2012-11-21 22:55:00
5:55 PM,68.2,47.1,47,30.06,10.0,SSE,10.4,-,N/A,,Clear,160,2012-11-21 23:55:00
6:55 PM,64.6,47.8,55,30.06,10.0,SSE,9.2,-,N/A,,Scattered Clouds,150,2012-11-22 00:55:00
7:55 PM,63.3,50.0,62,30.06,10.0,SSE,10.4,-,N/A,,Scattered Clouds,160,2012-11-22 01:55:00
8:55 PM,63.0,50.7,64,30.05,10.0,South,11.5,-,N/A,,Clear,170,2012-11-22 02:55:00
9:55 PM,61.7,49.1,63,30.04,10.0,South,11.5,-,N/A,,Partly Cloudy,170,2012-11-22 03:55:00
10:55 PM,60.1,48.7,66,30.02,10.0,SSE,4.6,-,N/A,,Clear,150,2012-11-22 04:55:00
11:55 PM,58.1,48.7,71,30.00,10.0,SSE,6.9,-,N/A,,Clear,160,2012-11-22 05:55:00